| time (UTC) | temp F | wind direction | speed MPH | gust MPH | rain 1hr in | rain 24hr in | rain mn in | humidity % | barometer mb |
| 20260906141210 | 68 | 357 | 0.0 | 0.0 | 0.00 | 0.00 | 0.00 | 80 | 1020.0 |
| 20260906140709 | 69 | 26 | 1.0 | 1.0 | 0.00 | 0.00 | 0.00 | 81 | 1020.0 |
| 20260906140209 | 69 | 174 | 0.0 | 4.0 | 0.00 | 0.00 | 0.00 | 80 | 1020.0 |
| 20260906135709 | 69 | 144 | 0.0 | 2.0 | 0.00 | 0.00 | 0.00 | 79 | 1020.0 |
| 20260906135209 | 70 | 167 | 0.0 | 2.0 | 0.00 | 0.00 | 0.00 | 79 | 1020.0 |
| 20260906134709 | 70 | 43 | 0.0 | 2.0 | 0.00 | 0.00 | 0.00 | 80 | 1020.0 |
| 20260906134209 | 69 | 165 | 0.0 | 3.0 | 0.00 | 0.00 | 0.00 | 82 | 1020.0 |
| 20260906133709 | 69 | 136 | 1.0 | 5.0 | 0.00 | 0.00 | 0.00 | 81 | 1020.0 |
| 20260906133210 | 69 | 31 | 0.0 | 2.0 | 0.00 | 0.00 | 0.00 | 83 | 1020.0 |
| 20260906132709 | 68 | 221 | 0.0 | 2.0 | 0.00 | 0.00 | 0.00 | 86 | 1020.0 |
| 20260906132209 | 68 | 16 | 0.0 | 0.0 | 0.00 | 0.00 | 0.00 | 87 | 1020.0 |
| 20260906131710 | 67 | 49 | 0.0 | 0.0 | 0.00 | 0.00 | 0.00 | 87 | 1020.0 |
| 20260906131209 | 67 | 108 | 0.0 | 0.0 | 0.00 | 0.00 | 0.00 | 88 | 1020.0 |
| 20260906130709 | 66 | 170 | 0.0 | 0.0 | 0.00 | 0.00 | 0.00 | 88 | 1020.0 |
| 20260906130209 | 66 | 7 | 0.0 | 1.0 | 0.00 | 0.00 | 0.00 | 89 | 1020.0 |
| 20260906125711 | 66 | 344 | 3.0 | 3.0 | 0.00 | 0.00 | 0.00 | 91 | 1020.0 |
| 20260906125209 | 65 | 273 | 0.0 | 0.0 | 0.00 | 0.00 | 0.00 | 92 | 1019.0 |
| 20260906124709 | 64 | 176 | 0.0 | 0.0 | 0.00 | 0.00 | 0.00 | 93 | 1020.0 |
| 20260906124210 | 64 | 243 | 0.0 | 1.0 | 0.00 | 0.00 | 0.00 | 95 | 1019.0 |
| 20260906123709 | 63 | 177 | 0.0 | 0.0 | 0.00 | 0.00 | 0.00 | 95 | 1019.0 |
| 20260906123210 | 63 | 9 | 0.0 | 0.0 | 0.00 | 0.00 | 0.00 | 95 | 1019.0 |
| 20260906122709 | 62 | 358 | 0.0 | 0.0 | 0.00 | 0.00 | 0.00 | 96 | 1019.0 |
| 20260906122209 | 62 | 138 | 0.0 | 0.0 | 0.00 | 0.00 | 0.00 | 96 | 1019.0 |
| 20260906121709 | 62 | 56 | 0.0 | 0.0 | 0.00 | 0.00 | 0.00 | 96 | 1019.0 |
| 20260906121210 | 61 | 139 | 0.0 | 0.0 | 0.00 | 0.00 | 0.00 | 96 | 1019.0 |
| 20260906120709 | 61 | 104 | 0.0 | 0.0 | 0.00 | 0.00 | 0.00 | 96 | 1019.0 |
| 20260906120210 | 61 | 119 | 0.0 | 0.0 | 0.00 | 0.00 | 0.00 | 95 | 1019.0 |
| 20260906115710 | 61 | 166 | 0.0 | 0.0 | 0.00 | 0.00 | 0.00 | 96 | 1019.0 |
| 20260906115209 | 61 | 153 | 0.0 | 0.0 | 0.00 | 0.00 | 0.00 | 96 | 1019.0 |
| 20260906114709 | 61 | 156 | 0.0 | 0.0 | 0.00 | 0.00 | 0.00 | 96 | 1019.0 |
| 20260906114210 | 61 | 148 | 0.0 | 0.0 | 0.00 | 0.00 | 0.00 | 95 | 1019.0 |
| 20260906113710 | 61 | 152 | 0.0 | 0.0 | 0.00 | 0.00 | 0.00 | 96 | 1019.0 |
| 20260906113210 | 61 | 141 | 0.0 | 0.0 | 0.00 | 0.00 | 0.00 | 95 | 1019.0 |
| 20260906112710 | 60 | 142 | 0.0 | 0.0 | 0.00 | 0.00 | 0.00 | 95 | 1019.0 |
| 20260906112209 | 61 | 170 | 0.0 | 0.0 | 0.00 | 0.00 | 0.00 | 96 | 1019.0 |
| 20260906111710 | 60 | 110 | 0.0 | 0.0 | 0.00 | 0.00 | 0.00 | 95 | 1019.0 |
| 20260906111209 | 60 | 136 | 0.0 | 0.0 | 0.00 | 0.00 | 0.00 | 95 | 1019.0 |
| 20260906110709 | 60 | 145 | 0.0 | 0.0 | 0.00 | 0.00 | 0.00 | 95 | 1019.0 |
| 20260906110209 | 61 | 139 | 0.0 | 0.0 | 0.00 | 0.00 | 0.00 | 95 | 1019.0 |
| 20260906105709 | 61 | 161 | 0.0 | 0.0 | 0.00 | 0.00 | 0.00 | 95 | 1018.0 |
| 20260906105209 | 61 | 149 | 0.0 | 0.0 | 0.00 | 0.00 | 0.00 | 95 | 1018.0 |
| 20260906104709 | 61 | 157 | 0.0 | 0.0 | 0.00 | 0.00 | 0.00 | 95 | 1018.0 |
| 20260906104210 | 61 | 143 | 0.0 | 0.0 | 0.00 | 0.00 | 0.00 | 95 | 1018.0 |
| 20260906103709 | 60 | 149 | 0.0 | 0.0 | 0.00 | 0.00 | 0.00 | 95 | 1018.0 |
| 20260906103209 | 61 | 154 | 0.0 | 0.0 | 0.00 | 0.00 | 0.00 | 95 | 1018.0 |
| 20260906102709 | 61 | 201 | 0.0 | 0.0 | 0.00 | 0.00 | 0.00 | 95 | 1018.0 |
| 20260906102209 | 60 | 151 | 0.0 | 0.0 | 0.00 | 0.00 | 0.00 | 94 | 1018.0 |
| 20260906101710 | 61 | 184 | 0.0 | 0.0 | 0.00 | 0.00 | 0.00 | 95 | 1018.0 |
| 20260906101209 | 61 | 167 | 0.0 | 0.0 | 0.00 | 0.00 | 0.00 | 94 | 1018.0 |
| 20260906100709 | 61 | 145 | 0.0 | 0.0 | 0.00 | 0.00 | 0.00 | 95 | 1018.0 |
| 20260906100210 | 61 | 143 | 0.0 | 0.0 | 0.00 | 0.00 | 0.00 | 95 | 1018.0 |
| 20260906095709 | 61 | 142 | 0.0 | 0.0 | 0.00 | 0.00 | 0.00 | 94 | 1018.0 |
| 20260906095210 | 61 | 159 | 0.0 | 0.0 | 0.00 | 0.00 | 0.00 | 94 | 1018.0 |
| 20260906094709 | 61 | 147 | 0.0 | 0.0 | 0.00 | 0.00 | 0.00 | 94 | 1018.0 |
| 20260906094209 | 61 | 144 | 0.0 | 0.0 | 0.00 | 0.00 | 0.00 | 94 | 1018.0 |
| 20260906093709 | 61 | 144 | 0.0 | 0.0 | 0.00 | 0.00 | 0.00 | 94 | 1018.0 |
| 20260906093209 | 61 | 143 | 0.0 | 0.0 | 0.00 | 0.00 | 0.00 | 94 | 1018.0 |
| 20260906092709 | 62 | 131 | 0.0 | 0.0 | 0.00 | 0.00 | 0.00 | 93 | 1018.0 |
| 20260906092210 | 62 | 137 | 0.0 | 0.0 | 0.00 | 0.00 | 0.00 | 94 | 1018.0 |
| 20260906091709 | 62 | 115 | 0.0 | 0.0 | 0.00 | 0.00 | 0.00 | 93 | 1018.0 |
| 20260906091209 | 62 | 127 | 0.0 | 0.0 | 0.00 | 0.00 | 0.00 | 93 | 1017.0 |
| 20260906090709 | 62 | 142 | 0.0 | 0.0 | 0.00 | 0.00 | 0.00 | 94 | 1017.0 |
| 20260906090209 | 62 | 143 | 0.0 | 0.0 | 0.00 | 0.00 | 0.00 | 93 | 1017.0 |
| 20260906085709 | 62 | 150 | 0.0 | 0.0 | 0.00 | 0.00 | 0.00 | 93 | 1017.0 |
| 20260906085209 | 62 | 141 | 0.0 | 0.0 | 0.00 | 0.00 | 0.00 | 93 | 1017.0 |
| 20260906084709 | 62 | 113 | 0.0 | 0.0 | 0.00 | 0.00 | 0.00 | 93 | 1017.0 |
| 20260906084210 | 62 | 130 | 0.0 | 0.0 | 0.00 | 0.00 | 0.00 | 92 | 1017.0 |
| 20260906083709 | 62 | 139 | 0.0 | 0.0 | 0.00 | 0.00 | 0.00 | 92 | 1017.0 |
| 20260906083209 | 63 | 150 | 0.0 | 0.0 | 0.00 | 0.00 | 0.00 | 92 | 1017.0 |
| 20260906082709 | 63 | 143 | 0.0 | 0.0 | 0.00 | 0.00 | 0.00 | 92 | 1017.0 |
| 20260906082209 | 63 | 144 | 0.0 | 0.0 | 0.00 | 0.00 | 0.00 | 92 | 1017.0 |
| 20260906081709 | 63 | 150 | 0.0 | 0.0 | 0.00 | 0.00 | 0.00 | 92 | 1017.0 |
| 20260906081210 | 63 | 148 | 0.0 | 0.0 | 0.00 | 0.00 | 0.00 | 91 | 1017.0 |
| 20260906080710 | 64 | 147 | 0.0 | 0.0 | 0.00 | 0.00 | 0.00 | 91 | 1017.0 |
| 20260906080210 | 64 | 141 | 0.0 | 0.0 | 0.00 | 0.00 | 0.00 | 91 | 1017.0 |
| 20260906075709 | 64 | 147 | 0.0 | 0.0 | 0.00 | 0.00 | 0.00 | 91 | 1017.0 |
| 20260906075210 | 64 | 143 | 0.0 | 0.0 | 0.00 | 0.00 | 0.00 | 90 | 1017.0 |
| 20260906074709 | 64 | 145 | 0.0 | 0.0 | 0.00 | 0.00 | 0.00 | 90 | 1017.0 |
| 20260906074209 | 65 | 149 | 0.0 | 0.0 | 0.00 | 0.00 | 0.00 | 89 | 1017.0 |
| 20260906073709 | 65 | 145 | 0.0 | 0.0 | 0.00 | 0.00 | 0.00 | 89 | 1017.0 |
| 20260906073209 | 65 | 145 | 0.0 | 0.0 | 0.00 | 0.00 | 0.00 | 87 | 1017.0 |
| 20260906072709 | 65 | 154 | 0.0 | 0.0 | 0.00 | 0.00 | 0.00 | 87 | 1017.0 |
| 20260906072212 | 66 | 144 | 0.0 | 0.0 | 0.00 | 0.00 | 0.00 | 87 | 1017.0 |
| 20260906071709 | 66 | 134 | 0.0 | 0.0 | 0.00 | 0.00 | 0.00 | 87 | 1017.0 |
| 20260906071209 | 66 | 112 | 0.0 | 0.0 | 0.00 | 0.00 | 0.00 | 87 | 1017.0 |
| 20260906070710 | 66 | 145 | 0.0 | 0.0 | 0.00 | 0.00 | 0.00 | 87 | 1017.0 |
| 20260906070209 | 66 | 144 | 0.0 | 0.0 | 0.00 | 0.00 | 0.00 | 87 | 1017.0 |
| 20260906065709 | 66 | 162 | 0.0 | 0.0 | 0.00 | 0.00 | 0.00 | 86 | 1017.0 |
| 20260906065213 | 66 | 150 | 0.0 | 0.0 | 0.00 | 0.00 | 0.00 | 87 | 1017.0 |
| 20260906064709 | 66 | 145 | 0.0 | 0.0 | 0.00 | 0.00 | 0.00 | 86 | 1017.0 |
| 20260906064209 | 66 | 157 | 0.0 | 0.0 | 0.00 | 0.00 | 0.00 | 85 | 1017.0 |
| 20260906063709 | 66 | 144 | 0.0 | 0.0 | 0.00 | 0.00 | 0.00 | 86 | 1017.0 |
| 20260906063210 | 66 | 151 | 0.0 | 0.0 | 0.00 | 0.00 | 0.00 | 86 | 1017.0 |
| 20260906062709 | 66 | 143 | 0.0 | 0.0 | 0.00 | 0.00 | 0.00 | 86 | 1017.0 |
| 20260906062209 | 67 | 160 | 0.0 | 0.0 | 0.00 | 0.00 | 0.00 | 86 | 1017.0 |
| 20260906061709 | 66 | 141 | 0.0 | 0.0 | 0.00 | 0.00 | 0.00 | 85 | 1017.0 |
| 20260906061209 | 66 | 142 | 0.0 | 0.0 | 0.00 | 0.00 | 0.00 | 85 | 1017.0 |
| 20260906060709 | 66 | 141 | 0.0 | 0.0 | 0.00 | 0.00 | 0.00 | 85 | 1017.0 |
| 20260906060209 | 66 | 124 | 0.0 | 0.0 | 0.00 | 0.00 | 0.00 | 84 | 1017.0 |
| 20260906055710 | 66 | 146 | 0.0 | 0.0 | 0.00 | 0.00 | 0.00 | 84 | 1017.0 |
| 20260906055209 | 66 | 142 | 0.0 | 0.0 | 0.00 | 0.00 | 0.00 | 84 | 1017.0 |
| 20260906054710 | 66 | 124 | 0.0 | 0.0 | 0.00 | 0.00 | 0.00 | 83 | 1017.0 |
| 20260906054209 | 66 | 94 | 0.0 | 0.0 | 0.00 | 0.00 | 0.00 | 84 | 1017.0 |
| 20260906053710 | 66 | 154 | 0.0 | 0.0 | 0.00 | 0.00 | 0.00 | 85 | 1017.0 |
| 20260906053209 | 66 | 138 | 0.0 | 0.0 | 0.00 | 0.00 | 0.00 | 83 | 1017.0 |
| 20260906052709 | 66 | 131 | 0.0 | 0.0 | 0.00 | 0.00 | 0.00 | 83 | 1017.0 |
| 20260906052209 | 66 | 140 | 0.0 | 0.0 | 0.00 | 0.00 | 0.00 | 83 | 1017.0 |
| 20260906051709 | 66 | 127 | 0.0 | 0.0 | 0.00 | 0.00 | 0.00 | 82 | 1017.0 |
| 20260906051209 | 66 | 133 | 0.0 | 0.0 | 0.00 | 0.00 | 0.00 | 83 | 1017.0 |
| 20260906050709 | 66 | 155 | 0.0 | 0.0 | 0.00 | 0.00 | 0.00 | 83 | 1017.0 |
| 20260906050209 | 66 | 150 | 0.0 | 0.0 | 0.00 | 0.00 | 0.00 | 83 | 1017.0 |
| 20260906045709 | 66 | 151 | 0.0 | 0.0 | 0.00 | 0.00 | 0.00 | 83 | 1017.0 |
| 20260906045209 | 66 | 69 | 0.0 | 0.0 | 0.00 | 0.00 | 0.00 | 83 | 1017.0 |
| 20260906044709 | 66 | 63 | 0.0 | 0.0 | 0.00 | 0.00 | 0.00 | 83 | 1017.0 |
| 20260906044209 | 66 | 136 | 0.0 | 0.0 | 0.00 | 0.00 | 0.00 | 83 | 1017.0 |
| 20260906043709 | 66 | 146 | 0.0 | 0.0 | 0.00 | 0.00 | 0.00 | 83 | 1017.0 |
| 20260906043209 | 66 | 142 | 0.0 | 0.0 | 0.00 | 0.00 | 0.00 | 83 | 1017.0 |
| 20260906042709 | 66 | 147 | 0.0 | 0.0 | 0.00 | 0.00 | 0.00 | 83 | 1017.0 |
| 20260906042209 | 66 | 136 | 0.0 | 0.0 | 0.00 | 0.00 | 0.00 | 82 | 1017.0 |
| 20260906041709 | 67 | 140 | 0.0 | 0.0 | 0.00 | 0.00 | 0.00 | 82 | 1017.0 |
| 20260906041209 | 66 | 140 | 0.0 | 0.0 | 0.00 | 0.00 | 0.00 | 83 | 1017.0 |
| 20260906040711 | 66 | 138 | 0.0 | 0.0 | 0.00 | 0.00 | 0.00 | 82 | 1017.0 |
| 20260906040209 | 66 | 93 | 0.0 | 0.0 | 0.00 | 0.00 | 0.00 | 83 | 1017.0 |
| 20260906035709 | 66 | 135 | 0.0 | 0.0 | 0.00 | 0.00 | 0.00 | 83 | 1017.0 |
| 20260906035209 | 66 | 122 | 0.0 | 0.0 | 0.00 | 0.00 | 0.00 | 83 | 1017.0 |
| 20260906034709 | 66 | 139 | 0.0 | 0.0 | 0.00 | 0.00 | 0.00 | 84 | 1017.0 |
| 20260906034210 | 66 | 147 | 0.0 | 0.0 | 0.00 | 0.00 | 0.00 | 85 | 1017.0 |
| 20260906033710 | 66 | 144 | 0.0 | 0.0 | 0.00 | 0.00 | 0.00 | 85 | 1017.0 |
| 20260906033210 | 66 | 137 | 0.0 | 0.0 | 0.00 | 0.00 | 0.00 | 85 | 1017.0 |
| 20260906032709 | 65 | 151 | 0.0 | 0.0 | 0.00 | 0.00 | 0.00 | 84 | 1017.0 |
| 20260906032210 | 65 | 142 | 0.0 | 0.0 | 0.00 | 0.00 | 0.00 | 84 | 1017.0 |
| 20260906031710 | 65 | 152 | 0.0 | 0.0 | 0.00 | 0.00 | 0.00 | 84 | 1016.0 |
| 20260906031210 | 65 | 157 | 0.0 | 0.0 | 0.00 | 0.00 | 0.00 | 84 | 1017.0 |
| 20260906030709 | 65 | 139 | 0.0 | 0.0 | 0.00 | 0.00 | 0.00 | 84 | 1016.0 |
| 20260906030209 | 65 | 140 | 0.0 | 0.0 | 0.00 | 0.00 | 0.00 | 84 | 1016.0 |
| 20260906025709 | 66 | 135 | 0.0 | 0.0 | 0.00 | 0.00 | 0.00 | 84 | 1016.0 |
| 20260906025209 | 66 | 154 | 0.0 | 0.0 | 0.00 | 0.00 | 0.00 | 84 | 1016.0 |
| 20260906024709 | 66 | 135 | 0.0 | 0.0 | 0.00 | 0.00 | 0.00 | 83 | 1016.0 |
| 20260906024209 | 66 | 140 | 0.0 | 0.0 | 0.00 | 0.00 | 0.00 | 83 | 1017.0 |
| 20260906023709 | 66 | 144 | 0.0 | 0.0 | 0.00 | 0.00 | 0.00 | 82 | 1017.0 |
| 20260906023209 | 66 | 145 | 0.0 | 0.0 | 0.00 | 0.00 | 0.00 | 81 | 1017.0 |
| 20260906022709 | 66 | 141 | 0.0 | 0.0 | 0.00 | 0.00 | 0.00 | 80 | 1016.0 |
| 20260906022209 | 67 | 147 | 0.0 | 0.0 | 0.00 | 0.00 | 0.00 | 80 | 1016.0 |
| 20260906021709 | 67 | 139 | 0.0 | 0.0 | 0.00 | 0.00 | 0.00 | 79 | 1016.0 |
| 20260906021210 | 67 | 143 | 0.0 | 0.0 | 0.00 | 0.00 | 0.00 | 80 | 1016.0 |
| 20260906020710 | 67 | 136 | 0.0 | 0.0 | 0.00 | 0.00 | 0.00 | 79 | 1016.0 |
| 20260906020209 | 67 | 146 | 0.0 | 0.0 | 0.00 | 0.00 | 0.00 | 80 | 1016.0 |
| 20260906015709 | 68 | 143 | 0.0 | 0.0 | 0.00 | 0.00 | 0.00 | 80 | 1016.0 |
| 20260906015209 | 68 | 146 | 0.0 | 0.0 | 0.00 | 0.00 | 0.00 | 77 | 1016.0 |
| 20260906014709 | 68 | 143 | 0.0 | 0.0 | 0.00 | 0.00 | 0.00 | 75 | 1016.0 |
| 20260906014209 | 68 | 147 | 0.0 | 0.0 | 0.00 | 0.00 | 0.00 | 77 | 1016.0 |
| 20260906013709 | 68 | 144 | 0.0 | 0.0 | 0.00 | 0.00 | 0.00 | 74 | 1016.0 |
| 20260906013209 | 68 | 146 | 0.0 | 0.0 | 0.00 | 0.00 | 0.00 | 75 | 1016.0 |
| 20260906012709 | 68 | 144 | 0.0 | 0.0 | 0.00 | 0.00 | 0.00 | 74 | 1016.0 |
| 20260906012210 | 69 | 141 | 0.0 | 0.0 | 0.00 | 0.00 | 0.00 | 74 | 1016.0 |
| 20260906011709 | 69 | 144 | 0.0 | 0.0 | 0.00 | 0.00 | 0.00 | 74 | 1016.0 |
| 20260906011210 | 69 | 168 | 0.0 | 0.0 | 0.00 | 0.00 | 0.00 | 72 | 1016.0 |
| 20260906010709 | 69 | 155 | 0.0 | 0.0 | 0.00 | 0.00 | 0.00 | 73 | 1016.0 |
| 20260906010209 | 69 | 145 | 0.0 | 0.0 | 0.00 | 0.00 | 0.00 | 73 | 1016.0 |
| 20260906005709 | 69 | 143 | 0.0 | 0.0 | 0.00 | 0.00 | 0.00 | 72 | 1016.0 |
| 20260906005210 | 69 | 149 | 0.0 | 0.0 | 0.00 | 0.00 | 0.00 | 72 | 1016.0 |
| 20260906004710 | 69 | 144 | 0.0 | 0.0 | 0.00 | 0.00 | 0.00 | 71 | 1016.0 |
| 20260906004210 | 69 | 154 | 0.0 | 0.0 | 0.00 | 0.00 | 0.00 | 71 | 1016.0 |
| 20260906003710 | 69 | 153 | 0.0 | 0.0 | 0.00 | 0.00 | 0.00 | 71 | 1015.0 |
| 20260906003209 | 69 | 139 | 0.0 | 0.0 | 0.00 | 0.00 | 0.00 | 71 | 1016.0 |
| 20260906002709 | 69 | 134 | 0.0 | 0.0 | 0.00 | 0.00 | 0.00 | 70 | 1016.0 |
| 20260906002209 | 69 | 142 | 0.0 | 0.0 | 0.00 | 0.00 | 0.00 | 69 | 1016.0 |
| 20260906001709 | 70 | 149 | 0.0 | 0.0 | 0.00 | 0.00 | 0.00 | 67 | 1016.0 |
| 20260906001209 | 70 | 141 | 0.0 | 0.0 | 0.00 | 0.00 | 0.00 | 67 | 1015.0 |
| 20260906000710 | 71 | 140 | 0.0 | 0.0 | 0.00 | 0.00 | 0.00 | 66 | 1015.0 |
| 20260906000212 | 71 | 145 | 0.0 | 0.0 | 0.00 | 0.00 | 0.00 | 64 | 1015.0 |
| 20260905235709 | 71 | 148 | 0.0 | 0.0 | 0.00 | 0.00 | 0.00 | 63 | 1015.0 |
| 20260905235210 | 72 | 130 | 0.0 | 0.0 | 0.00 | 0.00 | 0.00 | 63 | 1015.0 |
| 20260905234709 | 72 | 163 | 0.0 | 0.0 | 0.00 | 0.00 | 0.00 | 63 | 1015.0 |
| 20260905234211 | 72 | 267 | 0.0 | 0.0 | 0.00 | 0.00 | 0.00 | 64 | 1015.0 |
| 20260905233712 | 73 | 180 | 0.0 | 0.0 | 0.00 | 0.00 | 0.00 | 62 | 1015.0 |
| 20260905233209 | 73 | 43 | 0.0 | 1.0 | 0.00 | 0.00 | 0.00 | 60 | 1015.0 |
| 20260905232709 | 73 | 323 | 0.0 | 1.0 | 0.00 | 0.00 | 0.00 | 63 | 1016.0 |
| 20260905232209 | 74 | 250 | 0.0 | 2.0 | 0.00 | 0.00 | 0.00 | 59 | 1016.0 |
| 20260905231709 | 74 | 188 | 0.0 | 3.0 | 0.00 | 0.00 | 0.00 | 60 | 1015.0 |
| 20260905231209 | 75 | 339 | 0.0 | 0.0 | 0.00 | 0.00 | 0.00 | 60 | 1015.0 |
| 20260905230709 | 75 | 16 | 1.0 | 1.0 | 0.00 | 0.00 | 0.00 | 56 | 1015.0 |
| 20260905230210 | 75 | 216 | 1.0 | 1.0 | 0.00 | 0.00 | 0.00 | 56 | 1015.0 |
| 20260905225710 | 75 | 5 | 1.0 | 1.0 | 0.00 | 0.00 | 0.00 | 53 | 1016.0 |
| 20260905225210 | 76 | 233 | 0.0 | 2.0 | 0.00 | 0.00 | 0.00 | 54 | 1015.0 |
| 20260905224709 | 77 | 98 | 1.0 | 2.0 | 0.00 | 0.00 | 0.00 | 52 | 1015.0 |
| 20260905224209 | 77 | 305 | 1.0 | 3.0 | 0.00 | 0.00 | 0.00 | 52 | 1015.0 |
| 20260905223709 | 78 | 192 | 0.0 | 1.0 | 0.00 | 0.00 | 0.00 | 53 | 1015.0 |
| 20260905223209 | 78 | 187 | 0.0 | 2.0 | 0.00 | 0.00 | 0.00 | 51 | 1015.0 |
| 20260905222710 | 78 | 287 | 0.0 | 1.0 | 0.00 | 0.00 | 0.00 | 50 | 1015.0 |
| 20260905222209 | 78 | 135 | 0.0 | 3.0 | 0.00 | 0.00 | 0.00 | 48 | 1016.0 |
| 20260905221709 | 78 | 212 | 1.0 | 1.0 | 0.00 | 0.00 | 0.00 | 51 | 1016.0 |
| 20260905221209 | 79 | 267 | 0.0 | 0.0 | 0.00 | 0.00 | 0.00 | 49 | 1016.0 |
| 20260905220709 | 78 | 313 | 1.0 | 2.0 | 0.00 | 0.00 | 0.00 | 53 | 1015.0 |
| 20260905220209 | 78 | 128 | 0.0 | 0.0 | 0.00 | 0.00 | 0.00 | 51 | 1015.0 |
| 20260905215709 | 79 | 183 | 0.0 | 4.0 | 0.00 | 0.00 | 0.00 | 54 | 1015.0 |
| 20260905215209 | 80 | 8 | 0.0 | 2.0 | 0.00 | 0.00 | 0.00 | 53 | 1015.0 |
| 20260905214709 | 80 | 194 | 0.0 | 2.0 | 0.00 | 0.00 | 0.00 | 50 | 1015.0 |
| 20260905214210 | 80 | 115 | 0.0 | 4.0 | 0.00 | 0.00 | 0.00 | 50 | 1015.0 |
| 20260905213710 | 80 | 333 | 1.0 | 2.0 | 0.00 | 0.00 | 0.00 | 49 | 1015.0 |
| 20260905213210 | 81 | 298 | 1.0 | 4.0 | 0.00 | 0.00 | 0.00 | 50 | 1015.0 |
| 20260905212709 | 80 | 302 | 0.0 | 4.0 | 0.00 | 0.00 | 0.00 | 50 | 1015.0 |
| 20260905212209 | 80 | 87 | 1.0 | 1.0 | 0.00 | 0.00 | 0.00 | 49 | 1015.0 |
| 20260905211710 | 80 | 359 | 3.0 | 4.0 | 0.00 | 0.00 | 0.00 | 47 | 1015.0 |
| 20260905211210 | 80 | 227 | 1.0 | 5.0 | 0.00 | 0.00 | 0.00 | 50 | 1015.0 |
| 20260905210709 | 80 | 38 | 2.0 | 3.0 | 0.00 | 0.00 | 0.00 | 49 | 1015.0 |
| 20260905210209 | 79 | 324 | 2.0 | 8.0 | 0.00 | 0.00 | 0.00 | 52 | 1015.0 |
| 20260905205710 | 80 | 30 | 4.0 | 7.0 | 0.00 | 0.00 | 0.00 | 50 | 1015.0 |
| 20260905205209 | 79 | 125 | 3.0 | 4.0 | 0.00 | 0.00 | 0.00 | 53 | 1015.0 |
| 20260905204709 | 78 | 10 | 1.0 | 3.0 | 0.00 | 0.00 | 0.00 | 52 | 1015.0 |
| 20260905204209 | 76 | 221 | 0.0 | 4.0 | 0.00 | 0.00 | 0.00 | 55 | 1015.0 |
| 20260905203709 | 76 | 112 | 2.0 | 7.0 | 0.00 | 0.00 | 0.00 | 55 | 1015.0 |
| 20260905203211 | 77 | 318 | 5.0 | 5.0 | 0.00 | 0.00 | 0.00 | 54 | 1015.0 |
| 20260905202710 | 77 | 313 | 2.0 | 2.0 | 0.00 | 0.00 | 0.00 | 54 | 1015.0 |
| 20260905202209 | 78 | 256 | 2.0 | 2.0 | 0.00 | 0.00 | 0.00 | 51 | 1015.0 |
| 20260905201709 | 80 | 312 | 5.0 | 6.0 | 0.00 | 0.00 | 0.00 | 48 | 1015.0 |
| 20260905201210 | 81 | 20 | 3.0 | 3.0 | 0.00 | 0.00 | 0.00 | 51 | 1015.0 |
| 20260905200709 | 81 | 318 | 2.0 | 4.0 | 0.00 | 0.00 | 0.00 | 50 | 1015.0 |
| 20260905200209 | 81 | 44 | 0.0 | 4.0 | 0.00 | 0.00 | 0.00 | 49 | 1015.0 |
| 20260905195709 | 81 | 29 | 2.0 | 4.0 | 0.00 | 0.00 | 0.00 | 50 | 1015.0 |
| 20260905195209 | 80 | 271 | 2.0 | 4.0 | 0.00 | 0.00 | 0.00 | 53 | 1015.0 |
| 20260905194709 | 79 | 330 | 1.0 | 8.0 | 0.00 | 0.00 | 0.00 | 51 | 1015.0 |
| 20260905194209 | 78 | 333 | 2.0 | 4.0 | 0.00 | 0.00 | 0.00 | 54 | 1015.0 |
| 20260905193709 | 77 | 335 | 4.0 | 4.0 | 0.00 | 0.00 | 0.00 | 56 | 1015.0 |
| 20260905193209 | 77 | 294 | 3.0 | 4.0 | 0.00 | 0.00 | 0.00 | 54 | 1015.0 |
| 20260905192711 | 78 | 33 | 7.0 | 8.0 | 0.00 | 0.00 | 0.00 | 54 | 1015.0 |
| 20260905192209 | 76 | 153 | 0.0 | 2.0 | 0.00 | 0.00 | 0.00 | 60 | 1015.0 |
| 20260905191710 | 77 | 181 | 0.0 | 3.0 | 0.00 | 0.00 | 0.00 | 55 | 1015.0 |
| 20260905191210 | 77 | 152 | 1.0 | 2.0 | 0.00 | 0.00 | 0.00 | 56 | 1015.0 |
| 20260905190709 | 78 | 340 | 1.0 | 6.0 | 0.00 | 0.00 | 0.00 | 57 | 1015.0 |
| 20260905190209 | 81 | 26 | 2.0 | 5.0 | 0.00 | 0.00 | 0.00 | 51 | 1015.0 |
| 20260905185709 | 82 | 238 | 1.0 | 4.0 | 0.00 | 0.00 | 0.00 | 51 | 1015.0 |
| 20260905185210 | 81 | 161 | 0.0 | 4.0 | 0.00 | 0.00 | 0.00 | 50 | 1015.0 |
| 20260905184709 | 80 | 219 | 0.0 | 3.0 | 0.00 | 0.00 | 0.00 | 53 | 1016.0 |
| 20260905184209 | 79 | 8 | 2.0 | 3.0 | 0.00 | 0.00 | 0.00 | 51 | 1016.0 |
| 20260905183710 | 80 | 356 | 5.0 | 6.0 | 0.00 | 0.00 | 0.00 | 50 | 1016.0 |
| 20260905183209 | 80 | 325 | 6.0 | 6.0 | 0.00 | 0.00 | 0.00 | 51 | 1015.0 |
| 20260905182709 | 79 | 25 | 2.0 | 4.0 | 0.00 | 0.00 | 0.00 | 53 | 1015.0 |
| 20260905182209 | 80 | 330 | 6.0 | 6.0 | 0.00 | 0.00 | 0.00 | 49 | 1015.0 |
| 20260905181709 | 80 | 340 | 7.0 | 7.0 | 0.00 | 0.00 | 0.00 | 51 | 1015.0 |
| 20260905181210 | 78 | 128 | 0.0 | 4.0 | 0.00 | 0.00 | 0.00 | 51 | 1015.0 |
| 20260905180710 | 77 | 10 | 1.0 | 3.0 | 0.00 | 0.00 | 0.00 | 54 | 1015.0 |
| 20260905180209 | 77 | 10 | 0.0 | 3.0 | 0.00 | 0.00 | 0.00 | 53 | 1015.0 |
| 20260905175710 | 78 | 266 | 1.0 | 6.0 | 0.00 | 0.00 | 0.00 | 53 | 1015.0 |
| 20260905175209 | 78 | 357 | 4.0 | 4.0 | 0.00 | 0.00 | 0.00 | 54 | 1015.0 |
| 20260905174710 | 78 | 307 | 0.0 | 1.0 | 0.00 | 0.00 | 0.00 | 53 | 1015.0 |
| 20260905174209 | 79 | 9 | 2.0 | 5.0 | 0.00 | 0.00 | 0.00 | 49 | 1015.0 |
| 20260905173709 | 79 | 264 | 3.0 | 6.0 | 0.00 | 0.00 | 0.00 | 49 | 1015.0 |
| 20260905173209 | 79 | 229 | 2.0 | 3.0 | 0.00 | 0.00 | 0.00 | 51 | 1015.0 |
| 20260905172709 | 79 | 313 | 3.0 | 4.0 | 0.00 | 0.00 | 0.00 | 49 | 1015.0 |
| 20260905172209 | 79 | 124 | 0.0 | 3.0 | 0.00 | 0.00 | 0.00 | 56 | 1015.0 |
| 20260905171710 | 77 | 2 | 3.0 | 7.0 | 0.00 | 0.00 | 0.00 | 56 | 1015.0 |
| 20260905171209 | 75 | 45 | 0.0 | 2.0 | 0.00 | 0.00 | 0.00 | 60 | 1015.0 |
| 20260905170709 | 76 | 230 | 0.0 | 6.0 | 0.00 | 0.00 | 0.00 | 58 | 1015.0 |
| 20260905170210 | 76 | 335 | 0.0 | 4.0 | 0.00 | 0.00 | 0.00 | 57 | 1015.0 |
| 20260905165709 | 76 | 356 | 3.0 | 4.0 | 0.00 | 0.00 | 0.00 | 57 | 1015.0 |
| 20260905165209 | 76 | 43 | 1.0 | 1.0 | 0.00 | 0.00 | 0.00 | 57 | 1015.0 |
| 20260905164709 | 77 | 348 | 1.0 | 3.0 | 0.00 | 0.00 | 0.00 | 58 | 1015.0 |
| 20260905164209 | 78 | 295 | 1.0 | 4.0 | 0.00 | 0.00 | 0.00 | 55 | 1015.0 |
| 20260905163709 | 77 | 3 | 3.0 | 3.0 | 0.00 | 0.00 | 0.00 | 58 | 1015.0 |
| 20260905163224 | 78 | 16 | 4.0 | 4.0 | 0.00 | 0.00 | 0.00 | 56 | 1015.0 |
| 20260905162709 | 77 | 213 | 2.0 | 7.0 | 0.00 | 0.00 | 0.00 | 59 | 1016.0 |
| 20260905162209 | 76 | 316 | 4.0 | 8.0 | 0.00 | 0.00 | 0.00 | 57 | 1016.0 |
| 20260905161709 | 76 | 73 | 1.0 | 3.0 | 0.00 | 0.00 | 0.00 | 60 | 1016.0 |
| 20260905161210 | 76 | 344 | 3.0 | 4.0 | 0.00 | 0.00 | 0.00 | 61 | 1015.0 |
| 20260905160709 | 76 | 45 | 1.0 | 7.0 | 0.00 | 0.00 | 0.00 | 60 | 1016.0 |
| 20260905160209 | 76 | 32 | 3.0 | 5.0 | 0.00 | 0.00 | 0.00 | 58 | 1016.0 |
| 20260905155710 | 77 | 306 | 4.0 | 4.0 | 0.00 | 0.00 | 0.00 | 58 | 1016.0 |
| 20260905155209 | 76 | 353 | 1.0 | 4.0 | 0.00 | 0.00 | 0.00 | 63 | 1016.0 |
| 20260905154709 | 75 | 157 | 0.0 | 2.0 | 0.00 | 0.00 | 0.00 | 62 | 1016.0 |
| 20260905154209 | 74 | 136 | 1.0 | 5.0 | 0.00 | 0.00 | 0.00 | 64 | 1016.0 |
| 20260905153710 | 74 | 315 | 2.0 | 3.0 | 0.00 | 0.00 | 0.00 | 66 | 1016.0 |
| 20260905153209 | 75 | 353 | 0.0 | 2.0 | 0.00 | 0.00 | 0.00 | 64 | 1015.0 |
| 20260905152709 | 75 | 320 | 1.0 | 1.0 | 0.00 | 0.00 | 0.00 | 65 | 1016.0 |
| 20260905152209 | 74 | 207 | 0.0 | 4.0 | 0.00 | 0.00 | 0.00 | 66 | 1016.0 |
| 20260905151709 | 74 | 282 | 1.0 | 3.0 | 0.00 | 0.00 | 0.00 | 66 | 1016.0 |
| 20260905151209 | 75 | 190 | 1.0 | 4.0 | 0.00 | 0.00 | 0.00 | 65 | 1016.0 |
| 20260905150710 | 75 | 27 | 3.0 | 3.0 | 0.00 | 0.00 | 0.00 | 66 | 1016.0 |
| 20260905150209 | 74 | 296 | 3.0 | 3.0 | 0.00 | 0.00 | 0.00 | 67 | 1016.0 |
| 20260905145710 | 73 | 119 | 3.0 | 3.0 | 0.00 | 0.00 | 0.00 | 68 | 1016.0 |
| 20260905145209 | 73 | 355 | 2.0 | 3.0 | 0.00 | 0.00 | 0.00 | 68 | 1016.0 |
| 20260905144709 | 73 | 6 | 2.0 | 3.0 | 0.00 | 0.00 | 0.00 | 68 | 1016.0 |
| 20260905144210 | 73 | 7 | 2.0 | 2.0 | 0.00 | 0.00 | 0.00 | 70 | 1016.0 |
| 20260905143709 | 73 | 215 | 1.0 | 1.0 | 0.00 | 0.00 | 0.00 | 70 | 1016.0 |
| 20260905143210 | 72 | 321 | 3.0 | 4.0 | 0.00 | 0.00 | 0.00 | 71 | 1016.0 |
| 20260905142709 | 71 | 245 | 0.0 | 2.0 | 0.00 | 0.00 | 0.00 | 73 | 1016.0 |
| 20260905142209 | 71 | 190 | 0.0 | 3.0 | 0.00 | 0.00 | 0.00 | 74 | 1016.0 |
| 20260905141709 | 70 | 172 | 0.0 | 3.0 | 0.00 | 0.00 | 0.00 | 75 | 1016.0 |